Year,Month,Day,Hour,Minute,Value (Times are PST for temperature in C)
2010,07,22,00,00,17.50
2010,07,22,00,01,17.50
2010,07,22,00,02,17.50
2010,07,22,00,03,17.50
2010,07,22,00,04,17.50
2010,07,22,00,05,17.50
2010,07,22,00,06,17.50
2010,07,22,00,07,17.50
2010,07,22,00,08,17.40
2010,07,22,00,09,17.40
2010,07,22,00,10,17.40
2010,07,22,00,11,17.40
2010,07,22,00,12,17.30
2010,07,22,00,13,17.30
2010,07,22,00,14,17.30
2010,07,22,00,15,17.20
2010,07,22,00,16,17.10
2010,07,22,00,17,17.10
2010,07,22,00,18,17.00
2010,07,22,00,19,17.00
2010,07,22,00,20,16.90
2010,07,22,00,21,16.80
2010,07,22,00,22,16.80
2010,07,22,00,23,16.70
2010,07,22,00,24,16.70
2010,07,22,00,25,16.60
2010,07,22,00,26,16.60
2010,07,22,00,27,16.60
2010,07,22,00,28,16.50
2010,07,22,00,29,16.50
2010,07,22,00,30,16.40
2010,07,22,00,31,16.40
2010,07,22,00,32,16.30
2010,07,22,00,33,16.30
2010,07,22,00,34,16.20
2010,07,22,00,35,16.20
2010,07,22,00,36,16.20
2010,07,22,00,37,16.20
2010,07,22,00,38,16.20
2010,07,22,00,39,16.20
2010,07,22,00,40,16.20
2010,07,22,00,41,16.20
2010,07,22,00,42,16.30
2010,07,22,00,43,16.30
2010,07,22,00,44,16.30
2010,07,22,00,45,16.30
2010,07,22,00,46,16.40
2010,07,22,00,47,16.40
2010,07,22,00,48,16.40
2010,07,22,00,49,16.50
2010,07,22,00,50,16.50
2010,07,22,00,51,16.60
2010,07,22,00,52,16.60
2010,07,22,00,53,16.70
2010,07,22,00,54,16.70
2010,07,22,00,55,16.80
2010,07,22,00,56,16.80
2010,07,22,00,57,16.90
2010,07,22,00,58,16.90
2010,07,22,00,59,17.00
2010,07,22,01,00,17.10
2010,07,22,01,01,17.10
2010,07,22,01,02,17.10
2010,07,22,01,03,17.20
2010,07,22,01,04,17.10
2010,07,22,01,05,17.10
2010,07,22,01,06,17.10
2010,07,22,01,07,17.10
2010,07,22,01,08,17.00
2010,07,22,01,09,17.00
2010,07,22,01,10,16.90
2010,07,22,01,11,16.80
2010,07,22,01,12,16.70
2010,07,22,01,13,16.60
2010,07,22,01,14,16.60
2010,07,22,01,15,16.50
2010,07,22,01,16,16.50
2010,07,22,01,17,16.50
2010,07,22,01,18,16.40
2010,07,22,01,19,16.40
2010,07,22,01,20,16.40
2010,07,22,01,21,16.40
2010,07,22,01,22,16.40
2010,07,22,01,23,16.40
2010,07,22,01,24,16.30
2010,07,22,01,25,16.30
2010,07,22,01,26,16.30
2010,07,22,01,27,16.20
2010,07,22,01,28,16.20
2010,07,22,01,29,16.20
2010,07,22,01,30,16.10
2010,07,22,01,31,16.10
2010,07,22,01,32,16.00
2010,07,22,01,33,16.00
2010,07,22,01,34,15.90
2010,07,22,01,35,15.90
2010,07,22,01,36,15.80
2010,07,22,01,37,15.80
2010,07,22,01,38,15.80
2010,07,22,01,39,15.70
2010,07,22,01,40,15.70
2010,07,22,01,41,15.70
2010,07,22,01,42,15.60
2010,07,22,01,43,15.60
2010,07,22,01,44,15.50
2010,07,22,01,45,15.40
2010,07,22,01,46,15.40
2010,07,22,01,47,15.30
2010,07,22,01,48,15.30
2010,07,22,01,49,15.20
2010,07,22,01,50,15.10
2010,07,22,01,51,15.10
2010,07,22,01,52,15.00
2010,07,22,01,53,14.90
2010,07,22,01,54,14.80
2010,07,22,01,55,14.70
2010,07,22,01,56,14.60
2010,07,22,01,57,14.50
2010,07,22,01,58,14.40
2010,07,22,01,59,14.40
2010,07,22,02,00,14.30
2010,07,22,02,01,14.30
2010,07,22,02,02,14.20
2010,07,22,02,03,14.10
2010,07,22,02,04,14.10
2010,07,22,02,05,14.00
2010,07,22,02,06,13.90
2010,07,22,02,07,13.90
2010,07,22,02,08,13.80
2010,07,22,02,09,13.80
2010,07,22,02,10,13.80
2010,07,22,02,11,13.70
2010,07,22,02,12,13.70
2010,07,22,02,13,13.70
2010,07,22,02,14,13.70
2010,07,22,02,15,13.60
2010,07,22,02,16,13.60
2010,07,22,02,17,13.60
2010,07,22,02,18,13.60
2010,07,22,02,19,13.60
2010,07,22,02,20,13.60
2010,07,22,02,21,13.60
2010,07,22,02,22,13.50
2010,07,22,02,23,13.60
2010,07,22,02,24,13.60
2010,07,22,02,25,13.60
2010,07,22,02,26,13.60
2010,07,22,02,27,13.60
2010,07,22,02,28,13.60
2010,07,22,02,29,13.60
2010,07,22,02,30,13.60
2010,07,22,02,31,13.60
2010,07,22,02,32,13.70
2010,07,22,02,33,13.70
2010,07,22,02,34,13.70
2010,07,22,02,35,13.70
2010,07,22,02,36,13.70
2010,07,22,02,37,13.70
2010,07,22,02,38,13.70
2010,07,22,02,39,13.70
2010,07,22,02,40,13.80
2010,07,22,02,41,13.80
2010,07,22,02,42,13.80
2010,07,22,02,43,13.80
2010,07,22,02,44,13.80
2010,07,22,02,45,13.80
2010,07,22,02,46,13.80
2010,07,22,02,47,13.80
2010,07,22,02,48,13.80
2010,07,22,02,49,13.80
2010,07,22,02,50,13.90
2010,07,22,02,51,13.90
2010,07,22,02,52,13.90
2010,07,22,02,53,13.90
2010,07,22,02,54,13.90
2010,07,22,02,55,13.90
2010,07,22,02,56,13.90
2010,07,22,02,57,13.90
2010,07,22,02,58,13.90
2010,07,22,02,59,13.90
2010,07,22,03,00,13.90
2010,07,22,03,01,13.90
2010,07,22,03,02,13.90
2010,07,22,03,03,13.90
2010,07,22,03,04,14.00
2010,07,22,03,05,14.00
2010,07,22,03,06,14.00
2010,07,22,03,07,14.00
2010,07,22,03,08,14.00
2010,07,22,03,09,14.00
2010,07,22,03,10,14.10
2010,07,22,03,11,14.10
2010,07,22,03,12,14.10
2010,07,22,03,13,14.10
2010,07,22,03,14,14.10
2010,07,22,03,15,14.10
2010,07,22,03,16,14.10
2010,07,22,03,17,14.20
2010,07,22,03,18,14.20
2010,07,22,03,19,14.20
2010,07,22,03,20,14.20
2010,07,22,03,21,14.20
2010,07,22,03,22,14.20
2010,07,22,03,23,14.20
2010,07,22,03,24,14.20
2010,07,22,03,25,14.30
2010,07,22,03,26,14.30
2010,07,22,03,27,14.30
2010,07,22,03,28,14.30
2010,07,22,03,29,14.30
2010,07,22,03,30,14.30
2010,07,22,03,31,14.30
2010,07,22,03,32,14.30
2010,07,22,03,33,14.30
2010,07,22,03,34,14.30
2010,07,22,03,35,14.30
2010,07,22,03,36,14.30
2010,07,22,03,37,14.30
2010,07,22,03,38,14.30
2010,07,22,03,39,14.30
2010,07,22,03,40,14.30
2010,07,22,03,41,14.30
2010,07,22,03,42,14.30
2010,07,22,03,43,14.30
2010,07,22,03,44,14.30
2010,07,22,03,45,14.30
2010,07,22,03,46,14.30
2010,07,22,03,47,14.30
2010,07,22,03,48,14.30
2010,07,22,03,49,14.30
2010,07,22,03,50,14.30
2010,07,22,03,51,14.30
2010,07,22,03,52,14.30
2010,07,22,03,53,14.30
2010,07,22,03,54,14.30
2010,07,22,03,55,14.30
2010,07,22,03,56,14.30
2010,07,22,03,57,14.40
2010,07,22,03,58,14.40
2010,07,22,03,59,14.40
2010,07,22,04,00,14.40
2010,07,22,04,01,14.40
2010,07,22,04,02,14.40
2010,07,22,04,03,14.40
2010,07,22,04,04,14.50
2010,07,22,04,05,14.50
2010,07,22,04,06,14.50
2010,07,22,04,07,14.50
2010,07,22,04,08,14.50
2010,07,22,04,09,14.50
2010,07,22,04,10,14.60
2010,07,22,04,11,14.60
2010,07,22,04,12,14.60
2010,07,22,04,13,14.60
2010,07,22,04,14,14.60
2010,07,22,04,15,14.60
2010,07,22,04,16,14.60
2010,07,22,04,17,14.60
2010,07,22,04,18,14.60
2010,07,22,04,19,14.60
2010,07,22,04,20,14.60
2010,07,22,04,21,14.60
2010,07,22,04,22,14.60
2010,07,22,04,23,14.60
2010,07,22,04,24,14.60
2010,07,22,04,25,14.60
2010,07,22,04,26,14.60
2010,07,22,04,27,14.60
2010,07,22,04,28,14.60
2010,07,22,04,29,14.60
2010,07,22,04,30,14.60
2010,07,22,04,31,14.60
2010,07,22,04,32,14.60
2010,07,22,04,33,14.60
2010,07,22,04,34,14.50
2010,07,22,04,35,14.50
2010,07,22,04,36,14.50
2010,07,22,04,37,14.50
2010,07,22,04,38,14.50
2010,07,22,04,39,14.50
2010,07,22,04,40,14.50
2010,07,22,04,41,14.50
2010,07,22,04,42,14.50
2010,07,22,04,43,14.50
2010,07,22,04,44,14.50
2010,07,22,04,45,14.50
2010,07,22,04,46,14.40
2010,07,22,04,47,14.40
2010,07,22,04,48,14.40
2010,07,22,04,49,14.40
2010,07,22,04,50,14.40
2010,07,22,04,51,14.40
2010,07,22,04,52,14.40
2010,07,22,04,53,14.30
2010,07,22,04,54,14.30
2010,07,22,04,55,14.30
2010,07,22,04,56,14.30
2010,07,22,04,57,14.30
2010,07,22,04,58,14.30
2010,07,22,04,59,14.20
2010,07,22,05,00,14.20
2010,07,22,05,01,14.20
2010,07,22,05,02,14.20
2010,07,22,05,03,14.20
2010,07,22,05,04,14.10
2010,07,22,05,05,14.10
2010,07,22,05,06,14.10
2010,07,22,05,07,14.10
2010,07,22,05,08,14.10
2010,07,22,05,09,14.10
2010,07,22,05,10,14.10
2010,07,22,05,11,14.10
2010,07,22,05,12,14.10
2010,07,22,05,13,14.10
2010,07,22,05,14,14.10
2010,07,22,05,15,14.10
2010,07,22,05,16,14.10
2010,07,22,05,17,14.10
2010,07,22,05,18,14.10
2010,07,22,05,19,14.10
2010,07,22,05,20,14.10
2010,07,22,05,21,14.10
2010,07,22,05,22,14.10
2010,07,22,05,23,14.00
2010,07,22,05,24,14.00
2010,07,22,05,25,14.00
2010,07,22,05,26,14.00
2010,07,22,05,27,14.00
2010,07,22,05,28,14.00
2010,07,22,05,29,14.00
2010,07,22,05,30,14.00
2010,07,22,05,31,14.00
2010,07,22,05,32,14.00
2010,07,22,05,33,14.00
2010,07,22,05,34,14.00
2010,07,22,05,35,14.00
2010,07,22,05,36,13.90
2010,07,22,05,37,13.90
2010,07,22,05,38,13.90
2010,07,22,05,39,13.90
2010,07,22,05,40,13.90
2010,07,22,05,41,14.00
2010,07,22,05,42,13.90
2010,07,22,05,43,14.00
2010,07,22,05,44,14.00
2010,07,22,05,45,14.00
2010,07,22,05,46,14.00
2010,07,22,05,47,14.00
2010,07,22,05,48,14.00
2010,07,22,05,49,14.00
2010,07,22,05,50,14.00
2010,07,22,05,51,14.00
2010,07,22,05,52,13.90
2010,07,22,05,53,13.90
2010,07,22,05,54,13.90
2010,07,22,05,55,13.90
2010,07,22,05,56,13.90
2010,07,22,05,57,13.90
2010,07,22,05,58,13.90
2010,07,22,05,59,13.90
2010,07,22,06,00,13.90
2010,07,22,06,01,13.90
2010,07,22,06,02,13.90
2010,07,22,06,03,13.90
2010,07,22,06,04,13.90
2010,07,22,06,05,13.90
2010,07,22,06,06,13.90
2010,07,22,06,07,13.80
2010,07,22,06,08,13.80
2010,07,22,06,09,13.80
2010,07,22,06,10,13.80
2010,07,22,06,11,13.80
2010,07,22,06,12,13.80
2010,07,22,06,13,13.80
2010,07,22,06,14,13.80
2010,07,22,06,15,13.70
2010,07,22,06,16,13.70
2010,07,22,06,17,13.70
2010,07,22,06,18,13.70
2010,07,22,06,19,13.60
2010,07,22,06,20,13.60
2010,07,22,06,21,13.60
2010,07,22,06,22,13.60
2010,07,22,06,23,13.60
2010,07,22,06,24,13.60
2010,07,22,06,25,13.50
2010,07,22,06,26,13.50
2010,07,22,06,27,13.50
2010,07,22,06,28,13.50
2010,07,22,06,29,13.50
2010,07,22,06,30,13.50
2010,07,22,06,31,13.50
2010,07,22,06,32,13.50
2010,07,22,06,33,13.50
2010,07,22,06,34,13.50
2010,07,22,06,35,13.50
2010,07,22,06,36,13.50
2010,07,22,06,37,13.50
2010,07,22,06,38,13.50
2010,07,22,06,39,13.50
2010,07,22,06,40,13.50
2010,07,22,06,41,13.50
2010,07,22,06,42,13.50
2010,07,22,06,43,13.50
2010,07,22,06,44,13.50
2010,07,22,06,45,13.50
2010,07,22,06,46,13.50
2010,07,22,06,47,13.50
2010,07,22,06,48,13.50
2010,07,22,06,49,13.50
2010,07,22,06,50,13.50
2010,07,22,06,51,13.60
2010,07,22,06,52,13.60
2010,07,22,06,53,13.60
2010,07,22,06,54,13.60
2010,07,22,06,55,13.60
2010,07,22,06,56,13.60
2010,07,22,06,57,13.60
2010,07,22,06,58,13.60
2010,07,22,06,59,13.70
2010,07,22,07,00,13.70
2010,07,22,07,01,13.70
2010,07,22,07,02,13.70
2010,07,22,07,03,13.70
2010,07,22,07,04,13.70
2010,07,22,07,05,13.80
2010,07,22,07,06,13.80
2010,07,22,07,07,13.80
2010,07,22,07,08,13.80
2010,07,22,07,09,13.80
2010,07,22,07,10,13.80
2010,07,22,07,11,13.80
2010,07,22,07,12,13.80
2010,07,22,07,13,13.80
2010,07,22,07,14,13.80
2010,07,22,07,15,13.80
2010,07,22,07,16,13.80
2010,07,22,07,17,13.80
2010,07,22,07,18,13.80
2010,07,22,07,19,13.90
2010,07,22,07,20,13.90
2010,07,22,07,21,13.90
2010,07,22,07,22,13.90
2010,07,22,07,23,13.90
2010,07,22,07,24,13.90
2010,07,22,07,25,13.90
2010,07,22,07,26,13.90
2010,07,22,07,27,13.90
2010,07,22,07,28,13.90
2010,07,22,07,29,13.90
2010,07,22,07,30,13.90
2010,07,22,07,31,13.90
2010,07,22,07,32,13.90
2010,07,22,07,33,14.00
2010,07,22,07,34,14.00
2010,07,22,07,35,14.00
2010,07,22,07,36,14.00
2010,07,22,07,37,14.00
2010,07,22,07,38,14.00
2010,07,22,07,39,14.00
2010,07,22,07,40,14.00
2010,07,22,07,41,14.00
2010,07,22,07,42,14.00
2010,07,22,07,43,14.10
2010,07,22,07,44,14.10
2010,07,22,07,45,14.10
2010,07,22,07,46,14.20
2010,07,22,07,47,14.20
2010,07,22,07,48,14.20
2010,07,22,07,49,14.20
2010,07,22,07,50,14.20
2010,07,22,07,51,14.20
2010,07,22,07,52,14.30
2010,07,22,07,53,14.30
2010,07,22,07,54,14.30
2010,07,22,07,55,14.30
2010,07,22,07,56,14.30
2010,07,22,07,57,14.40
2010,07,22,07,58,14.40
2010,07,22,07,59,14.40
2010,07,22,08,00,14.40
2010,07,22,08,01,14.40
2010,07,22,08,02,14.40
2010,07,22,08,03,14.50
2010,07,22,08,04,14.50
2010,07,22,08,05,14.50
2010,07,22,08,06,14.60
2010,07,22,08,07,14.60
2010,07,22,08,08,14.60
2010,07,22,08,09,14.60
2010,07,22,08,10,14.60
2010,07,22,08,11,14.60
2010,07,22,08,12,14.70
2010,07,22,08,13,14.70
2010,07,22,08,14,14.70
2010,07,22,08,15,14.70
2010,07,22,08,16,14.70
2010,07,22,08,17,14.70
2010,07,22,08,18,14.70
2010,07,22,08,19,14.70
2010,07,22,08,20,14.70
2010,07,22,08,21,14.70
2010,07,22,08,22,14.70
2010,07,22,08,23,14.70
2010,07,22,08,24,14.70
2010,07,22,08,25,14.70
2010,07,22,08,26,14.70
2010,07,22,08,27,14.70
2010,07,22,08,28,14.70
2010,07,22,08,29,14.70
2010,07,22,08,30,14.70
2010,07,22,08,31,14.80
2010,07,22,08,32,14.80
2010,07,22,08,33,14.80
2010,07,22,08,34,14.80
2010,07,22,08,35,14.80
2010,07,22,08,36,14.90
2010,07,22,08,37,14.90
2010,07,22,08,38,14.90
2010,07,22,08,39,15.00
2010,07,22,08,40,15.10
2010,07,22,08,41,15.10
2010,07,22,08,42,15.20
2010,07,22,08,43,15.30
2010,07,22,08,44,15.30
2010,07,22,08,45,15.40
2010,07,22,08,46,15.50
2010,07,22,08,47,15.50
2010,07,22,08,48,15.60
2010,07,22,08,49,15.60
2010,07,22,08,50,15.70
2010,07,22,08,51,15.70
2010,07,22,08,52,15.70
2010,07,22,08,53,15.70
2010,07,22,08,54,15.70
2010,07,22,08,55,15.80
2010,07,22,08,56,15.80
2010,07,22,08,57,15.80
2010,07,22,08,58,15.90
2010,07,22,08,59,15.90
2010,07,22,09,00,15.90
2010,07,22,09,01,15.90
2010,07,22,09,02,15.90
2010,07,22,09,03,16.00
2010,07,22,09,04,16.00
2010,07,22,09,05,16.10
2010,07,22,09,06,16.10
2010,07,22,09,07,16.10
2010,07,22,09,08,16.10
2010,07,22,09,09,16.10
2010,07,22,09,10,16.10
2010,07,22,09,11,16.10
2010,07,22,09,12,16.10
2010,07,22,09,13,16.10
2010,07,22,09,14,16.10
2010,07,22,09,15,16.10
2010,07,22,09,16,16.10
2010,07,22,09,17,16.10
2010,07,22,09,18,16.10
2010,07,22,09,19,16.10
2010,07,22,09,20,16.10
2010,07,22,09,21,16.10
2010,07,22,09,22,16.20
2010,07,22,09,23,16.20
2010,07,22,09,24,16.10
2010,07,22,09,25,16.10
2010,07,22,09,26,16.00
2010,07,22,09,27,16.00
2010,07,22,09,28,16.00
2010,07,22,09,29,16.00
2010,07,22,09,30,16.00
2010,07,22,09,31,16.00
2010,07,22,09,32,16.10
2010,07,22,09,33,16.10
2010,07,22,09,34,16.10
2010,07,22,09,35,16.10
2010,07,22,09,36,16.10
2010,07,22,09,37,16.10
2010,07,22,09,38,16.00
2010,07,22,09,39,15.90
2010,07,22,09,40,15.80
2010,07,22,09,41,15.80
2010,07,22,09,42,15.80
2010,07,22,09,43,15.70
2010,07,22,09,44,15.70
2010,07,22,09,45,15.70
2010,07,22,09,46,15.70
2010,07,22,09,47,15.80
2010,07,22,09,48,15.80
2010,07,22,09,49,15.80
2010,07,22,09,50,15.80
2010,07,22,09,51,15.80
2010,07,22,09,52,15.80
2010,07,22,09,53,15.80
2010,07,22,09,54,15.90
2010,07,22,09,55,15.90
2010,07,22,09,56,15.80
2010,07,22,09,57,15.80
2010,07,22,09,58,15.90
2010,07,22,09,59,16.00
2010,07,22,10,00,16.10
2010,07,22,10,01,16.20
2010,07,22,10,02,16.30
2010,07,22,10,03,16.30
2010,07,22,10,04,16.40
2010,07,22,10,05,16.50
2010,07,22,10,06,16.60
2010,07,22,10,07,16.60
2010,07,22,10,08,16.70
2010,07,22,10,09,16.70
2010,07,22,10,10,16.70
2010,07,22,10,11,16.70
2010,07,22,10,12,16.70
2010,07,22,10,13,16.60
2010,07,22,10,14,16.60
2010,07,22,10,15,16.50
2010,07,22,10,16,16.50
2010,07,22,10,17,16.50
2010,07,22,10,18,16.50
2010,07,22,10,19,16.60
2010,07,22,10,20,16.60
2010,07,22,10,21,16.60
2010,07,22,10,22,16.50
2010,07,22,10,23,16.50
2010,07,22,10,24,16.50
2010,07,22,10,25,16.50
2010,07,22,10,26,16.50
2010,07,22,10,27,16.50
2010,07,22,10,28,16.60
2010,07,22,10,29,16.60
2010,07,22,10,30,16.70
2010,07,22,10,31,16.70
2010,07,22,10,32,16.80
2010,07,22,10,33,16.70
2010,07,22,10,34,16.70
2010,07,22,10,35,16.70
2010,07,22,10,36,16.70
2010,07,22,10,37,16.70
2010,07,22,10,38,16.70
2010,07,22,10,39,16.70
2010,07,22,10,40,16.70
2010,07,22,10,41,16.80
2010,07,22,10,42,16.80
2010,07,22,10,43,16.80
2010,07,22,10,44,16.80
2010,07,22,10,45,16.80
2010,07,22,10,46,16.80
2010,07,22,10,47,16.80
2010,07,22,10,48,16.80
2010,07,22,10,49,16.80
2010,07,22,10,50,16.80
2010,07,22,10,51,16.90
2010,07,22,10,52,17.00
2010,07,22,10,53,17.00
2010,07,22,10,54,17.10
2010,07,22,10,55,17.20
2010,07,22,10,56,17.20
2010,07,22,10,57,17.20
2010,07,22,10,58,17.20
2010,07,22,10,59,17.10
2010,07,22,11,00,17.00
2010,07,22,11,01,17.00
2010,07,22,11,02,17.00
2010,07,22,11,03,17.00
2010,07,22,11,04,17.00
2010,07,22,11,05,17.00
2010,07,22,11,06,17.00
2010,07,22,11,07,17.00
2010,07,22,11,08,17.10
2010,07,22,11,09,17.10
2010,07,22,11,10,17.10
2010,07,22,11,11,17.10
2010,07,22,11,12,17.20
2010,07,22,11,13,17.20
2010,07,22,11,14,17.20
2010,07,22,11,15,17.30
2010,07,22,11,16,17.30
2010,07,22,11,17,17.30
2010,07,22,11,18,17.40
2010,07,22,11,19,17.40
2010,07,22,11,20,17.40
2010,07,22,11,21,17.40
2010,07,22,11,22,17.40
2010,07,22,11,23,17.50
2010,07,22,11,24,17.50
2010,07,22,11,25,17.60
2010,07,22,11,26,17.60
2010,07,22,11,27,17.60
2010,07,22,11,28,17.60
2010,07,22,11,29,17.60
2010,07,22,11,30,17.60
2010,07,22,11,31,17.60
2010,07,22,11,32,17.60
2010,07,22,11,33,17.70
2010,07,22,11,34,17.70
2010,07,22,11,35,17.70
2010,07,22,11,36,17.70
2010,07,22,11,37,17.70
2010,07,22,11,38,17.70
2010,07,22,11,39,17.70
2010,07,22,11,40,17.70
2010,07,22,11,41,17.80
2010,07,22,11,42,17.80
2010,07,22,11,43,17.80
2010,07,22,11,44,17.90
2010,07,22,11,45,18.00
2010,07,22,11,46,18.10
2010,07,22,11,47,18.20
2010,07,22,11,48,18.30
2010,07,22,11,49,18.30
2010,07,22,11,50,18.30
2010,07,22,11,51,18.30
2010,07,22,11,52,18.20
2010,07,22,11,53,18.20
2010,07,22,11,54,18.20
2010,07,22,11,55,18.10
2010,07,22,11,56,18.00
2010,07,22,11,57,18.00
2010,07,22,11,58,17.90
2010,07,22,11,59,17.90
2010,07,22,12,00,18.00
2010,07,22,12,01,18.10
2010,07,22,12,02,18.10
2010,07,22,12,03,18.20
2010,07,22,12,04,18.20
2010,07,22,12,05,18.30
2010,07,22,12,06,18.30
2010,07,22,12,07,18.40
2010,07,22,12,08,18.50
2010,07,22,12,09,18.60
2010,07,22,12,10,18.70
2010,07,22,12,11,18.70
2010,07,22,12,12,18.80
2010,07,22,12,13,18.80
2010,07,22,12,14,18.90
2010,07,22,12,15,18.90
2010,07,22,12,16,18.90
2010,07,22,12,17,18.80
2010,07,22,12,18,18.80
2010,07,22,12,19,18.80
2010,07,22,12,20,18.70
2010,07,22,12,21,18.70
2010,07,22,12,22,18.60
2010,07,22,12,23,18.50
2010,07,22,12,24,18.40
2010,07,22,12,25,18.30
2010,07,22,12,26,18.30
2010,07,22,12,27,18.30
2010,07,22,12,28,18.30
2010,07,22,12,29,18.30
2010,07,22,12,30,18.40
2010,07,22,12,31,18.50
2010,07,22,12,32,18.60
2010,07,22,12,33,18.60
2010,07,22,12,34,18.70
2010,07,22,12,35,18.80
2010,07,22,12,36,18.90
2010,07,22,12,37,19.00
2010,07,22,12,38,19.00
2010,07,22,12,39,19.10
2010,07,22,12,40,19.10
2010,07,22,12,41,19.10
2010,07,22,12,42,19.10
2010,07,22,12,43,19.10
2010,07,22,12,44,19.10
2010,07,22,12,45,19.10
2010,07,22,12,46,19.20
2010,07,22,12,47,19.20
2010,07,22,12,48,19.20
2010,07,22,12,49,19.20
2010,07,22,12,50,19.30
2010,07,22,12,51,19.30
2010,07,22,12,52,19.30
2010,07,22,12,53,19.30
2010,07,22,12,54,19.30
2010,07,22,12,55,19.30
2010,07,22,12,56,19.30
2010,07,22,12,57,19.30
2010,07,22,12,58,19.30
2010,07,22,12,59,19.30
2010,07,22,13,00,19.20
2010,07,22,13,01,19.30
2010,07,22,13,02,19.30
2010,07,22,13,03,19.30
2010,07,22,13,04,19.30
2010,07,22,13,05,19.30
2010,07,22,13,06,19.40
2010,07,22,13,07,19.40
2010,07,22,13,08,19.40
2010,07,22,13,09,19.50
2010,07,22,13,10,19.50
2010,07,22,13,11,19.60
2010,07,22,13,12,19.50
2010,07,22,13,13,19.50
2010,07,22,13,14,19.50
2010,07,22,13,15,19.40
2010,07,22,13,16,19.30
2010,07,22,13,17,19.30
2010,07,22,13,18,19.40
2010,07,22,13,19,19.40
2010,07,22,13,20,19.50
2010,07,22,13,21,19.60
2010,07,22,13,22,19.70
2010,07,22,13,23,19.80
2010,07,22,13,24,19.70
2010,07,22,13,25,19.60
2010,07,22,13,26,19.60
2010,07,22,13,27,19.70
2010,07,22,13,28,19.70
2010,07,22,13,29,19.70
2010,07,22,13,30,19.60
2010,07,22,13,31,19.60
2010,07,22,13,32,19.70
2010,07,22,13,33,19.80
2010,07,22,13,34,19.90
2010,07,22,13,35,19.90
2010,07,22,13,36,19.80
2010,07,22,13,37,19.80
2010,07,22,13,38,19.70
2010,07,22,13,39,19.70
2010,07,22,13,40,19.80
2010,07,22,13,41,19.80
2010,07,22,13,42,19.90
2010,07,22,13,43,19.90
2010,07,22,13,44,20.00
2010,07,22,13,45,20.10
2010,07,22,13,46,20.10
2010,07,22,13,47,20.20
2010,07,22,13,48,20.20
2010,07,22,13,49,20.10
2010,07,22,13,50,20.10
2010,07,22,13,51,20.10
2010,07,22,13,52,20.10
2010,07,22,13,53,20.10
2010,07,22,13,54,20.10
2010,07,22,13,55,20.20
2010,07,22,13,56,20.20
2010,07,22,13,57,20.20
2010,07,22,13,58,20.30
2010,07,22,13,59,20.40
2010,07,22,14,00,20.40
2010,07,22,14,01,20.40
2010,07,22,14,02,20.40
2010,07,22,14,03,20.50
2010,07,22,14,04,20.60
2010,07,22,14,05,20.60
2010,07,22,14,06,20.70
2010,07,22,14,07,20.70
2010,07,22,14,08,20.70
2010,07,22,14,09,20.80
2010,07,22,14,10,20.90
2010,07,22,14,11,20.90
2010,07,22,14,12,21.10
2010,07,22,14,13,21.20
2010,07,22,14,14,21.20
2010,07,22,14,15,21.20
2010,07,22,14,16,21.20
2010,07,22,14,17,21.20
2010,07,22,14,18,21.00
2010,07,22,14,19,20.90
2010,07,22,14,20,20.80
2010,07,22,14,21,20.70
2010,07,22,14,22,20.60
2010,07,22,14,23,20.60
2010,07,22,14,24,20.60
2010,07,22,14,25,20.70
2010,07,22,14,26,20.70
2010,07,22,14,27,20.70
2010,07,22,14,28,20.70
2010,07,22,14,29,20.70
2010,07,22,14,30,20.90
2010,07,22,14,31,20.90
2010,07,22,14,32,20.90
2010,07,22,14,33,20.90
2010,07,22,14,34,20.80
2010,07,22,14,35,20.70
2010,07,22,14,36,20.60
2010,07,22,14,37,20.60
2010,07,22,14,38,20.50
2010,07,22,14,39,20.40
2010,07,22,14,40,20.30
2010,07,22,14,41,20.20
2010,07,22,14,42,20.10
2010,07,22,14,43,20.10
2010,07,22,14,44,20.00
2010,07,22,14,45,20.00
2010,07,22,14,46,20.10
2010,07,22,14,47,20.20
2010,07,22,14,48,20.20
2010,07,22,14,49,20.10
2010,07,22,14,50,20.10
2010,07,22,14,51,20.00
2010,07,22,14,52,20.00
2010,07,22,14,53,19.90
2010,07,22,14,54,19.90
2010,07,22,14,55,19.90
2010,07,22,14,56,19.90
2010,07,22,14,57,19.90
2010,07,22,14,58,19.80
2010,07,22,14,59,19.80
2010,07,22,15,00,19.80
2010,07,22,15,01,19.80
2010,07,22,15,02,19.80
2010,07,22,15,03,19.80
2010,07,22,15,04,19.80
2010,07,22,15,05,19.80
2010,07,22,15,06,19.80
2010,07,22,15,07,19.80
2010,07,22,15,08,19.80
2010,07,22,15,09,19.70
2010,07,22,15,10,19.70
2010,07,22,15,11,19.70
2010,07,22,15,12,19.70
2010,07,22,15,13,19.70
2010,07,22,15,14,19.70
2010,07,22,15,15,19.80
2010,07,22,15,16,19.80
2010,07,22,15,17,19.80
2010,07,22,15,18,19.70
2010,07,22,15,19,19.70
2010,07,22,15,20,19.60
2010,07,22,15,21,19.50
2010,07,22,15,22,19.50
2010,07,22,15,23,19.40
2010,07,22,15,24,19.40
2010,07,22,15,25,19.50
2010,07,22,15,26,19.50
2010,07,22,15,27,19.60
2010,07,22,15,28,19.60
2010,07,22,15,29,19.60
2010,07,22,15,30,19.60
2010,07,22,15,31,19.60
2010,07,22,15,32,19.60
2010,07,22,15,33,19.60
2010,07,22,15,34,19.60
2010,07,22,15,35,19.60
2010,07,22,15,36,19.50
2010,07,22,15,37,19.50
2010,07,22,15,38,19.40
2010,07,22,15,39,19.30
2010,07,22,15,40,19.20
2010,07,22,15,41,19.10
2010,07,22,15,42,19.10
2010,07,22,15,43,19.00
2010,07,22,15,44,18.90
2010,07,22,15,45,18.80
2010,07,22,15,46,18.70
2010,07,22,15,47,18.70
2010,07,22,15,48,18.70
2010,07,22,15,49,18.70
2010,07,22,15,50,18.80
2010,07,22,15,51,18.80
2010,07,22,15,52,18.80
2010,07,22,15,53,18.80
2010,07,22,15,54,18.80
2010,07,22,15,55,18.80
2010,07,22,15,56,18.80
2010,07,22,15,57,18.70
2010,07,22,15,58,18.70
2010,07,22,15,59,18.70
2010,07,22,16,00,18.70
2010,07,22,16,01,18.60
2010,07,22,16,02,18.60
2010,07,22,16,03,18.60
2010,07,22,16,04,18.60
2010,07,22,16,05,18.60
2010,07,22,16,06,18.60
2010,07,22,16,07,18.60
2010,07,22,16,08,18.50
2010,07,22,16,09,18.40
2010,07,22,16,10,18.40
2010,07,22,16,11,18.40
2010,07,22,16,12,18.30
2010,07,22,16,13,18.30
2010,07,22,16,14,18.20
2010,07,22,16,15,18.20
2010,07,22,16,16,18.20
2010,07,22,16,17,18.20
2010,07,22,16,18,18.20
2010,07,22,16,19,18.10
2010,07,22,16,20,18.10
2010,07,22,16,21,18.10
2010,07,22,16,22,18.10
2010,07,22,16,23,18.10
2010,07,22,16,24,18.10
2010,07,22,16,25,18.10
2010,07,22,16,26,18.20
2010,07,22,16,27,18.20
2010,07,22,16,28,18.10
2010,07,22,16,29,18.10
2010,07,22,16,30,18.00
2010,07,22,16,31,18.00
2010,07,22,16,32,17.90
2010,07,22,16,33,17.90
2010,07,22,16,34,17.90
2010,07,22,16,35,17.90
2010,07,22,16,36,17.90
2010,07,22,16,37,17.80
2010,07,22,16,38,17.80
2010,07,22,16,39,17.80
2010,07,22,16,40,17.80
2010,07,22,16,41,17.90
2010,07,22,16,42,17.90
2010,07,22,16,43,18.00
2010,07,22,16,44,18.00
2010,07,22,16,45,18.00
2010,07,22,16,46,18.00
2010,07,22,16,47,18.00
2010,07,22,16,48,18.00
2010,07,22,16,49,18.00
2010,07,22,16,50,18.00
2010,07,22,16,51,18.00
2010,07,22,16,52,18.00
2010,07,22,16,53,18.10
2010,07,22,16,54,18.10
2010,07,22,16,55,18.10
2010,07,22,16,56,18.10
2010,07,22,16,57,18.00
2010,07,22,16,58,18.00
2010,07,22,16,59,18.10
2010,07,22,17,00,18.10
2010,07,22,17,01,18.10
2010,07,22,17,02,18.10
2010,07,22,17,03,18.20
2010,07,22,17,04,18.20
2010,07,22,17,05,18.10
2010,07,22,17,06,18.10
2010,07,22,17,07,18.00
2010,07,22,17,08,17.90
2010,07,22,17,09,17.90
2010,07,22,17,10,17.90
2010,07,22,17,11,17.90
2010,07,22,17,12,17.90
2010,07,22,17,13,17.90
2010,07,22,17,14,17.90
2010,07,22,17,15,17.90
2010,07,22,17,16,17.90
2010,07,22,17,17,17.90
2010,07,22,17,18,17.90
2010,07,22,17,19,17.90